Regional Weather Roundup
Issued by NWS

Home | Current Version | Previous Version | Graphics & Text | Print | Product List | Glossary On
Versions: 1 2 3 4 5 6 7 8 9 10 11 12 13 14 15 16 17 18 19 20 21 22 23 24 25 26 27 28 29 30 31 32 33 34 35 36 37 38 39 40 41 42 43 44 45 46 47 48 49 50
000
ASUS43 KBIS 231610
RWRND

NORTH DAKOTA REGIONAL WEATHER ROUNDUP
NATIONAL WEATHER SERVICE BISMARCK ND
1000 AM CST SUN NOV 23 2014

NOTE: "FAIR" INDICATES FEW OR NO CLOUDS BELOW 12,000 FEET WITH NO
SIGNIFICANT WEATHER AND/OR OBSTRUCTIONS TO VISIBILITY.


NDZ001>003-009>011-017-231700-
NORTHWEST NORTH DAKOTA

CITY           SKY/WX    TMP DP  RH WIND       PRES   REMARKS
WILLISTON      LGT SNOW  19  13  77 NW20G26   29.66R WCI   3
MINOT          FLURRIES  22  15  75 W29G38    29.44R WCI   4
MINOT AFB      MIX PCPN  23  19  87 NW30      29.42S WCI   5
$$

NDZ018>021-031>035-040>046-231700-
SOUTHWEST NORTH DAKOTA

CITY           SKY/WX    TMP DP  RH WIND       PRES   REMARKS
BISMARCK       PTSUNNY   33  18  53 W28G37    29.53R WCI  20
DICKINSON      MIX PCPN  25  18  74 NW29G45   29.57R WCI   8
GARRISON         N/A     23  17  78 W30G41    29.48S WCI   5
HETTINGER ARPT CLOUDY    32  24  72 NW33G45   29.59R WCI  17
$$

NDZ004>008-012>016-024-026-027-054-231700-
NORTHEAST NORTH DAKOTA

CITY           SKY/WX    TMP DP  RH WIND       PRES   REMARKS
GRAND FORKS    CLOUDY    43  34  70 W13       29.39R
GRND FRKS AFB  CLOUDY    43  36  75 W9        29.40R
DEVILS LAKE    CLOUDY    34  21  60 W22       29.38R
$$

NDZ022-023-025-028>030-036>039-047>053-231700-
SOUTHEAST NORTH DAKOTA

CITY           SKY/WX    TMP DP  RH WIND       PRES   REMARKS
FARGO          LGT RAIN  39  35  86 SW6       29.43S
JAMESTOWN      CLOUDY    39  32  76 W18G28    29.42S
$$



USA.gov is the U.S. government's official web portal to all federal, state and local government web resources and services.